Tracking 18784 objects as of 17-August-2017
HD Live streaming from Space Station
objects crossing your sky now

NAVSTAR 37 (USA 117)

Track NAVSTAR 37 (USA 117) now!
NAVSTAR 37 (USA 117) is classified as:


NORAD ID: 23833
Int'l Code: 1996-019A
Perigee: 20,705.0 km
Apogee: 20,750.0 km
Inclination: 54.5 °
Period: 739.9 minutes
Semi major axis: 27098 km
RCS: 4.1981 m2 (large)
Launch date: March 28, 1996
Source: United States (US)
Launch site: AIR FORCE EASTERN TEST RANGE (AFETR)
PRN:
Your satellite tracking list
Your tracking list is empty





NASA's NSSDC Master Catalog

Two Line Element Set (TLE):
1 23833U 96019A   17228.04840543 -.00000048  00000-0  00000+0 0  9994
2 23833  54.4660  30.3417 0008308 295.5019 312.3954  1.94618583156097
Source of the keplerian elements: AFSPC